Wenatchee, WA

7:47 PM PDT on April 25, 2017 (GMT -0700)
Pangborn Memorial

Weather History for KEAT - October, 2013

Change the Weather History Date:

Sunday, October 20, 2013

  Actual Average Record
Temperature  
Mean Temperature 55 °F 49 °F  
Max Temperature 70 °F 59 °F 70 °F (2013)
Min Temperature 40 °F 39 °F 28 °F (1982)
Degree Days  
Heating Degree Days 10 16  
Month to date heating degree days 277 232  
Since 1 July heating degree days 373 344  
Cooling Degree Days 0 0  
Month to date cooling degree days 0 0  
Year to date cooling degree days 1028 790  
Growing Degree Days 6 (Base 50)    
Moisture  
Dew Point 40 °F    
Average Humidity 61    
Maximum Humidity 89    
Minimum Humidity 32    
Precipitation  
Precipitation 0.00 in 0.02 in 0.07 in (2003)
Month to date precipitation T 0.22  
Year to date precipitation 6.69 5.28  
Sea Level Pressure  
Sea Level Pressure 30.13 in    
Wind  
Wind Speed 5 mph (WNW)    
Max Wind Speed 12 mph    
Max Gust Speed 13 mph    
Visibility 10 miles    
Events      
T = Trace of Precipitation, MM = Missing Value Source: NWS Daily Summary

Daily Weather History Graph

Daily Weather History Graph

Search for Another Location

Airport or City:

Trip Planner

Search our weather history database for the weather conditions in past years. The results will help you decide how hot, cold, wet, or windy it might be!

Date:

Astronomy

Oct. 20, 2013 Rise Set
Actual Time 7:27 AM PDT 6:03 PM PDT
Civil Twilight 6:55 AM PDT 6:34 PM PDT
Nautical Twilight 6:20 AM PDT 7:10 PM PDT
Astronomical Twilight 5:44 AM PDT 7:45 PM PDT
Moon 7:07 PM PDT (10/20) 9:17 AM PDT (10/20)
Length of Visible Light 11h 38m
Length of Day
10h 36m
Waning Gibbous, 97% of the Moon is Illuminated
Oct 20
Waning Gibbous
Oct 26
Last Quarter
Nov 3
New
Nov 9
First Quarter
Nov 17
Full

Hourly Weather History & Observations

Time (PDT) Temp. Windchill Dew Point Humidity Pressure Visibility Wind Dir Wind Speed Gust Speed Precip Events Conditions
12:55 AM 48.0 °F - 39.9 °F 74% 30.14 in 10.0 mi NW 9.2 mph - N/A   Clear
1:55 AM 46.9 °F - 39.9 °F 77% 30.15 in 10.0 mi NW 5.8 mph - N/A   Clear
2:55 AM 45.0 °F 40.1 °F 39.0 °F 80% 30.16 in 10.0 mi West 9.2 mph - N/A   Clear
3:55 AM 43.0 °F 40.3 °F 39.0 °F 86% 30.15 in 10.0 mi WNW 4.6 mph - N/A   Clear
4:55 AM 44.1 °F 42.5 °F 39.9 °F 85% 30.15 in 10.0 mi WNW 3.5 mph - N/A   Clear
5:55 AM 45.0 °F 40.1 °F 39.0 °F 80% 30.15 in 10.0 mi WNW 9.2 mph - N/A   Clear
6:55 AM 42.1 °F 39.2 °F 37.9 °F 85% 30.16 in 10.0 mi NW 4.6 mph - N/A   Clear
7:55 AM 41.0 °F 39.0 °F 37.9 °F 89% 30.17 in 10.0 mi West 3.5 mph - N/A   Clear
8:55 AM 46.0 °F 44.8 °F 39.9 °F 79% 30.18 in 10.0 mi West 3.5 mph - N/A   Clear
9:55 AM 50.0 °F - 39.0 °F 66% 30.18 in 10.0 mi West 3.5 mph - N/A   Clear
10:55 AM 54.0 °F - 39.9 °F 59% 30.17 in 10.0 mi Calm Calm - N/A   Clear
11:55 AM 57.9 °F - 39.9 °F 51% 30.15 in 10.0 mi Calm Calm - N/A   Clear
12:55 PM 61.0 °F - 37.9 °F 42% 30.14 in 10.0 mi WSW 4.6 mph - N/A   Clear
1:55 PM 64.9 °F - 39.0 °F 39% 30.11 in 10.0 mi Calm Calm - N/A   Clear
2:55 PM 68.0 °F - 37.9 °F 33% 30.08 in 10.0 mi Variable 4.6 mph - N/A   Clear
3:55 PM 70.0 °F - 39.0 °F 32% 30.08 in 10.0 mi SSE 8.1 mph - N/A   Clear
4:55 PM 68.0 °F - 39.9 °F 36% 30.06 in 10.0 mi ESE 5.8 mph - N/A   Clear
5:55 PM 64.0 °F - 42.1 °F 45% 30.07 in 10.0 mi East 5.8 mph - N/A   Clear
6:55 PM 59.0 °F - 43.0 °F 55% 30.09 in 10.0 mi East 5.8 mph - N/A   Clear
7:55 PM 57.0 °F - 42.1 °F 57% 30.10 in 10.0 mi NW 5.8 mph - N/A   Clear
8:55 PM 57.0 °F - 41.0 °F 55% 30.12 in 10.0 mi Calm Calm - N/A   Clear
9:55 PM 57.0 °F - 41.0 °F 55% 30.13 in 10.0 mi SE 3.5 mph - N/A   Clear
10:55 PM 51.1 °F - 39.9 °F 66% 30.14 in 10.0 mi Variable 3.5 mph - N/A   Clear
11:55 PM 53.1 °F - 39.9 °F 61% 30.14 in 10.0 mi NW 6.9 mph - N/A   Clear